Hayward, WI

4:17 AM CST on December 16, 2019 (GMT -0600)
Sawyer County

Weather History for KHYR - September, 2019

Change the Weather History Date:

Monday, September 30, 2019

  Actual Average Record
Temperature  
Mean Temperature 64 °F -  
Max Temperature 73 °F 72 °F 75 °F (2000)
Min Temperature 55 °F 49 °F 28 °F (1998)
Degree Days  
Heating Degree Days 2    
Growing Degree Days 14 (Base 50)    
Moisture  
Dew Point 59 °F    
Average Humidity 91    
Maximum Humidity 100    
Minimum Humidity 81    
Precipitation  
Precipitation 1.19 in - - ()
Sea Level Pressure  
Sea Level Pressure 29.84 in    
Wind  
Wind Speed 11 mph (SE)    
Max Wind Speed 17 mph    
Max Gust Speed 36 mph    
Visibility 5 miles    
Events Fog , Rain , Thunderstorm    
Averages and records for this station are not official NWS values.
T = Trace of Precipitation, MM = Missing Value Source: NWS Daily Summary

Daily Weather History Graph

Daily Weather History Graph

Search for Another Location

Airport or City:

Astronomy

Sep. 30, 2019 Rise Set
Actual Time 7:02 AM CDT 6:48 PM CDT
Civil Twilight 6:32 AM CDT 7:17 PM CDT
Nautical Twilight 5:58 AM CDT 7:52 PM CDT
Astronomical Twilight 5:22 AM CDT 8:27 PM CDT
Moon 9:11 AM CDT (9/30) 8:17 PM CDT (9/30)
Length of Visible Light 12h 45m
Length of Day
11h 45m
Waxing Crescent, 6% of the Moon is Illuminated
Sep 30
Waxing Crescent
Oct 5
First Quarter
Oct 13
Full
Oct 21
Last Quarter
Oct 27
New

Hourly Weather History & Observations

Time (CDT) Temp. Dew Point Humidity Pressure Visibility Wind Dir Wind Speed Gust Speed Precip Events Conditions
12:53 AM 55.9 °F 52.0 °F 87% 29.99 in 8.0 mi SSE 15.0 mph 25.3 mph 0.00 in Rain Light Rain
1:53 AM 55.9 °F 53.1 °F 90% 29.99 in 5.0 mi South 9.2 mph 19.6 mph 0.10 in Rain Rain
2:17 AM 55.9 °F 54.0 °F 93% 29.95 in 2.5 mi SSE 11.5 mph 21.9 mph 0.06 in Rain Rain
2:50 AM 57.2 °F 53.6 °F 88% 29.92 in 5.0 mi SSE 17.3 mph 35.7 mph 0.16 in Rain , Thunderstorm Light Thunderstorms and Rain
2:53 AM 57.0 °F 55.0 °F 93% 29.93 in 5.0 mi SSE 17.3 mph 28.8 mph 0.17 in Rain , Thunderstorm Thunderstorms and Rain
3:05 AM 57.9 °F 55.0 °F 90% 29.92 in 4.0 mi SSE 13.8 mph 25.3 mph 0.01 in Rain , Thunderstorm Rain
3:32 AM 60.1 °F 57.0 °F 90% 29.91 in 2.0 mi SSE 13.8 mph 26.5 mph 0.11 in Rain , Thunderstorm Heavy Rain
3:34 AM 60.1 °F 57.9 °F 93% 29.92 in 1.8 mi SSE 10.4 mph 25.3 mph 0.12 in Rain , Thunderstorm Heavy Thunderstorms and Rain
3:44 AM 60.1 °F 57.9 °F 93% 29.91 in 3.0 mi SSE 13.8 mph 23.0 mph 0.16 in Rain , Thunderstorm Light Thunderstorms and Rain
3:53 AM 60.1 °F 57.9 °F 93% 29.92 in 3.0 mi SSE 13.8 mph 28.8 mph 0.18 in Rain , Thunderstorm Thunderstorms and Rain
4:06 AM 60.1 °F 57.0 °F 90% 29.92 in 10.0 mi SSE 12.7 mph 24.2 mph 0.00 in Rain , Thunderstorm Light Rain
4:16 AM 61.0 °F 57.0 °F 87% 29.91 in 10.0 mi SSE 11.5 mph 20.7 mph 0.00 in   Overcast
4:53 AM 59.0 °F 55.0 °F 87% 29.92 in 10.0 mi SSE 10.4 mph 19.6 mph 0.00 in   Overcast
5:21 AM 57.9 °F 55.0 °F 90% 29.90 in 10.0 mi North - - N/A   Overcast
5:53 AM 57.9 °F 55.0 °F 90% 29.91 in 6.0 mi SSE 5.8 mph - N/A   Overcast
6:42 AM 57.9 °F 55.0 °F 90% 29.87 in 2.0 mi Variable 4.6 mph - N/A   Overcast
6:51 AM 57.2 °F 55.4 °F 94% 29.86 in 1.8 mi ESE 4.6 mph - N/A   Overcast
6:53 AM 57.9 °F 55.0 °F 90% 29.87 in 1.8 mi East 5.8 mph - N/A   Overcast
7:08 AM 57.9 °F 55.0 °F 90% 29.85 in 2.0 mi Variable 6.9 mph - N/A   Overcast
7:26 AM 57.9 °F 55.0 °F 90% 29.85 in 2.5 mi Variable 6.9 mph - N/A Thunderstorm Overcast
7:41 AM 57.9 °F 55.0 °F 90% 29.84 in 2.5 mi NE 6.9 mph - N/A   Overcast
7:53 AM 57.9 °F 55.9 °F 93% 29.86 in 1.5 mi Variable 4.6 mph - 0.01 in Rain Light Rain
8:17 AM 57.9 °F 55.9 °F 93% 29.83 in 1.0 mi NE 5.8 mph - 0.00 in Rain Light Rain
8:29 AM 57.9 °F 55.9 °F 93% 29.87 in 1.5 mi NNW 12.7 mph 26.5 mph 0.04 in Rain Light Rain
8:35 AM 57.9 °F 55.9 °F 93% 29.88 in 1.0 mi North 13.8 mph 26.5 mph 0.05 in Rain , Thunderstorm Heavy Thunderstorms and Rain
8:51 AM 57.2 °F 55.4 °F 94% 29.87 in 1.0 mi NNE 17.3 mph 27.6 mph 0.16 in Rain , Thunderstorm Heavy Thunderstorms and Rain
8:52 AM 57.9 °F 55.9 °F 93% 29.88 in 1.0 mi NNE 16.1 mph 27.6 mph 0.17 in Rain , Thunderstorm Heavy Thunderstorms and Rain
8:56 AM 57.9 °F 55.9 °F 93% 29.87 in 1.2 mi NNE 13.8 mph 24.2 mph 0.00 in Rain , Thunderstorm Rain
9:05 AM 59.0 °F 55.9 °F 90% 29.91 in 2.0 mi North 6.9 mph 21.9 mph 0.03 in Rain , Thunderstorm Light Thunderstorms and Rain
9:17 AM 57.9 °F 57.0 °F 97% 29.84 in 0.2 mi East 13.8 mph - 0.39 in Fog , Rain , Thunderstorm Heavy Thunderstorms and Rain
9:29 AM 59.0 °F 57.0 °F 93% 29.82 in 2.0 mi ESE 12.7 mph - 0.40 in Rain , Thunderstorm Light Thunderstorms and Rain
9:31 AM 59.0 °F 57.0 °F 93% 29.81 in 4.0 mi East 12.7 mph - 0.40 in Rain , Thunderstorm Light Thunderstorms and Rain
9:38 AM 59.0 °F 57.0 °F 93% 29.81 in 10.0 mi East 10.4 mph 25.3 mph 0.40 in Rain Light Rain
9:45 AM 60.1 °F 57.0 °F 90% 29.89 in 10.0 mi NW 8.1 mph 21.9 mph 0.40 in Rain , Thunderstorm Light Thunderstorms and Rain
9:53 AM 59.0 °F 57.0 °F 93% 29.90 in 5.0 mi North 9.2 mph - 0.41 in Rain , Thunderstorm Light Thunderstorms and Rain
10:07 AM 59.0 °F 57.0 °F 93% 29.86 in 1.2 mi ENE 9.2 mph - 0.08 in Rain , Thunderstorm Thunderstorms and Rain
10:15 AM 60.1 °F 57.9 °F 93% 29.85 in 0.8 mi East 8.1 mph 18.4 mph 0.13 in Rain , Thunderstorm Heavy Thunderstorms and Rain
10:22 AM 60.1 °F 57.9 °F 93% 29.85 in 1.2 mi East 8.1 mph - 0.14 in Rain , Thunderstorm Light Thunderstorms and Rain
10:24 AM 60.1 °F 57.9 °F 93% 29.85 in 2.0 mi ESE 6.9 mph - 0.14 in Rain , Thunderstorm Light Rain
10:28 AM 60.1 °F 57.9 °F 93% 29.84 in 5.0 mi North - - 0.14 in Rain Light Rain
10:53 AM 61.0 °F 59.0 °F 93% 29.84 in 3.0 mi Variable 5.8 mph - 0.14 in Rain Light Rain
11:27 AM 62.1 °F 59.0 °F 90% 29.81 in 10.0 mi ESE 10.4 mph - 0.00 in   Overcast
11:53 AM 63.0 °F 60.1 °F 90% 29.81 in 10.0 mi SE 6.9 mph - 0.00 in   Overcast
12:53 PM 66.0 °F 60.1 °F 81% 29.78 in 10.0 mi South 9.2 mph - N/A   Overcast
1:53 PM 66.9 °F 61.0 °F 81% 29.75 in 10.0 mi SSE 11.5 mph 19.6 mph N/A   Overcast
2:04 PM 66.9 °F 62.1 °F 84% 29.74 in 10.0 mi SE 11.5 mph 20.7 mph N/A   Overcast
2:53 PM 66.9 °F 63.0 °F 87% 29.75 in 10.0 mi SSE 8.1 mph 17.3 mph N/A   Overcast
3:11 PM 66.9 °F 63.0 °F 87% 29.75 in 10.0 mi SSE 10.4 mph - N/A   Overcast
3:53 PM 69.1 °F 64.0 °F 84% 29.73 in 10.0 mi South 9.2 mph - N/A   Overcast
4:03 PM 69.1 °F 64.0 °F 84% 29.74 in 10.0 mi South 9.2 mph - N/A   Overcast
4:53 PM 70.0 °F 64.9 °F 84% 29.74 in 10.0 mi South 6.9 mph - N/A   Mostly Cloudy
5:53 PM 71.1 °F 66.0 °F 84% 29.74 in 10.0 mi SSW 4.6 mph - N/A   Scattered Clouds
6:53 PM 71.1 °F 66.9 °F 87% 29.72 in 7.0 mi South 5.8 mph - N/A   Partly Cloudy
7:53 PM 71.1 °F 68.0 °F 90% 29.72 in 8.0 mi SSW 6.9 mph - N/A   Mostly Cloudy
8:53 PM 72.0 °F 68.0 °F 87% 29.71 in 8.0 mi SSW 6.9 mph - N/A   Mostly Cloudy
9:53 PM 70.0 °F 68.0 °F 93% 29.75 in 4.0 mi Calm Calm - 0.01 in   Scattered Clouds
10:31 PM 68.0 °F 66.9 °F 96% 29.76 in 1.8 mi South 5.8 mph - N/A   Partly Cloudy
10:47 PM 68.0 °F 68.0 °F 100% 29.76 in 0.5 mi Calm Calm - N/A Fog Fog
10:53 PM 69.1 °F 66.9 °F 93% 29.76 in 0.2 mi SW 4.6 mph - N/A Fog Fog
11:05 PM 71.1 °F 69.1 °F 93% 29.77 in 1.2 mi WSW 4.6 mph - N/A   Scattered Clouds
11:07 PM 71.1 °F 69.1 °F 93% 29.77 in 3.0 mi WSW 5.8 mph - N/A   Scattered Clouds
11:16 PM 72.0 °F 70.0 °F 93% 29.77 in 6.0 mi WSW 6.9 mph - N/A   Mostly Cloudy
11:28 PM 72.0 °F 69.1 °F 91% 29.79 in 6.0 mi North - - N/A   Overcast
11:53 PM 68.0 °F 64.9 °F 90% 29.80 in 7.0 mi Variable 4.6 mph - N/A   Overcast